[[{"header":{"parameterUnit":"m.s-1","parameterCategory":1,"la1":30.2991,"la2":30.254,"lo1":-89.0895,"lo2":-89.0444,"dy":0.0017,"dx":0.0017,"nx":28,"ny":28,"refTime":"2023-05-23T21:00:00:Z","depth":0,"parameterNumber":2,"parameterNumberName":"U-component_of_WINDS"},"data":[0,0,0,0,0,0,0,0,0,0,0,0,0,0,0,0,0,0,0,0,0,0,0,0,0,0,0,0,0,0,0,0,0,0,0,0,0,0,0,0,0,0,0,0,0,0,0,0,0,0,0,0,0,0,0,0,0,0,-2.2095,-2.2095,0,-2.209,-2.209,-2.209,-2.1986,-2.1983,-2.198,-2.1978,-2.1976,-2.1979,-2.1981,0,0,0,0,0,0,0,0,0,0,0,0,0,-2.2016,-2.2018,-2.2095,-2.2095,-2.2095,-2.209,-2.209,-2.209,-2.1986,-2.1983,-2.198,-2.1977,-2.1975,-2.1978,-2.1981,0,0,0,0,0,0,0,0,0,0,0,0,0,-2.2035,-2.2018,-2.2095,-2.2042,-2.2038,-2.209,-2.209,-2.209,-2.1987,-2.1983,-2.1979,-2.1975,-2.1975,-2.1978,-2.1982,-2.2085,0,0,-2.1993,-2.1995,0,0,0,0,0,0,0,0,-2.2034,-2.2038,-2.205,-2.2046,-2.2041,-2.2034,-2.2061,-2.2089,-2.1988,-2.2006,-2.1978,-2.1973,-2.1999,-2.2,-2.2009,-2.2085,-2.2085,-2.1993,-2.1996,-2.1997,-2.1998,0,0,0,0,0,0,0,-2.2032,-2.2037,-2.2093,-2.205,-2.2045,-2.2019,-2.2018,-2.2066,-2.2026,-2.2004,-2.1997,-2.1997,-2.1996,-2.2005,-2.2008,-2.2085,-2.1993,-2.1997,-2.1999,-2.2,-2.2246,-2.225,0,0,0,0,0,0,-2.2038,-2.2037,-2.2093,-2.2093,-2.2027,-2.2024,-2.2022,-2.2041,-2.2025,-2.2018,-2.2001,-2.1993,-2.2001,-2.2004,-2.2007,-2.2128,-2.1997,-2.2001,-2.2003,-2.2242,-2.2247,-2.2252,0,0,0,0,0,0,-2.2037,-2.2044,-2.2093,-2.2063,-2.2067,-2.203,-2.2051,-2.2043,-2.2052,-2.2022,-2.2014,-2.2018,-2.1998,-2.2002,-2.2066,-2.2126,-2.2002,-2.2006,-2.2237,-2.2243,-2.2249,-2.237,0,0,0,0,0,0,-2.2035,-2.2044,-2.2083,-2.2064,-2.2069,-2.2153,-2.2055,-2.2045,-2.2058,-2.2047,-2.2036,-2.203,-2.1995,-2.2061,-2.207,-2.2129,-2.2009,-2.2231,-2.224,-2.2247,-2.2361,-2.238,-2.2396,0,0,0,0,0,-2.2032,-2.2118,-2.2086,-2.2093,-2.2117,-2.2156,-2.2159,-2.2116,-2.2064,-2.2103,-2.2083,-2.2031,-2.2118,-2.2069,-2.2078,-2.2139,-2.2227,-2.2237,-2.2247,-2.2353,-2.2376,-2.2396,0,0,0,0,0,0,-2.2147,-2.2115,-2.2078,-2.216,-2.2162,-2.2139,-2.2187,-2.2142,-2.2159,-2.2149,-2.2094,-2.2093,-2.2166,-2.2158,-2.2104,-2.2238,-2.2163,-2.2175,-2.2241,-2.2263,-2.2281,-2.2282,-2.2012,0,0,0,0,0,-2.2181,-2.2215,-2.2185,-2.2261,-2.2263,-2.2225,-2.224,-2.2207,-2.2206,-2.2207,-2.2192,-2.2194,-2.2222,-2.2241,-2.2265,-2.2358,-2.2355,-2.2404,-2.2422,-2.2437,-2.2449,-2.2498,-2.252,-2.2283,-2.2283,-2.2283,0,0,-2.2253,-2.224,-2.2265,-2.2283,-2.228,-2.2317,-2.2226,-2.2269,-2.2297,-2.2213,-2.2273,-2.2262,-2.2261,-2.234,-2.2374,-2.2336,-2.2513,-2.2449,-2.2461,-2.2465,-2.251,-2.2532,-2.2552,-2.229,-2.2289,-2.2288,0,0,-2.2404,-2.2397,-2.2459,-2.2457,-2.2453,-2.2427,-2.2441,-2.2425,-2.2414,-2.2472,-2.2411,-2.2442,-2.2491,-2.2493,-2.25,-2.2649,-2.2602,-2.2658,-2.2753,-2.2801,-2.282,-2.2836,-2.2891,-2.2911,-2.2669,-2.267,-2.267,0,-2.2495,-2.2548,-2.2497,-2.2544,-2.2554,-2.2478,-2.2541,-2.2541,-2.2546,-2.2555,-2.2512,-2.2571,-2.2565,-2.2643,-2.2679,-2.2687,-2.2703,-2.2661,-2.2821,-2.2837,-2.2851,-2.2903,-2.2923,-2.2677,-2.2676,-2.2675,-2.2675,0,-2.266,-2.2698,-2.2748,-2.2753,-2.2768,-2.2823,-2.2781,-2.2802,-2.2766,-2.2745,-2.2805,-2.2795,-2.2815,-2.283,-2.2797,-2.2904,-2.2881,-2.283,-2.2754,-2.2882,-2.2929,-2.2948,-2.2687,-2.2684,-2.2682,-2.268,0,0,-2.2887,-2.286,-2.288,-2.2881,-2.2869,-2.2898,-2.2948,-2.2967,-2.2987,-2.2992,-2.3034,-2.3076,-2.3028,-2.3037,-2.3001,-2.3044,-2.3164,-2.2987,-2.2986,-2.3022,-2.3283,-2.3323,-2.3347,-2.3131,-2.3134,-2.3137,-2.3284,0,-2.3034,-2.3119,-2.3073,-2.3165,-2.3199,-2.3126,-2.317,-2.3168,-2.3149,-2.3175,-2.3153,-2.3185,-2.3118,-2.3123,-2.3161,-2.3141,-2.3216,-2.3129,-2.3171,-2.3173,-2.3177,-2.3371,-2.3414,-2.3553,-2.3302,-2.3305,-2.3307,0,-2.3218,-2.3229,-2.3324,-2.3305,-2.3317,-2.3358,-2.3371,-2.3396,-2.3393,-2.3375,-2.3384,-2.3338,-2.3387,-2.331,-2.3377,-2.332,-2.3333,-2.3326,-2.333,-2.3335,-2.325,-2.3383,-2.3596,-2.3619,-2.3335,-2.3333,-2.3331,0,-2.3376,-2.3414,-2.3475,-2.3478,-2.3457,-2.3488,-2.3481,-2.3472,-2.3486,-2.3497,-2.3506,-2.3523,-2.3533,-2.3547,-2.3508,-2.3455,-2.3581,-2.35,-2.3569,-2.3571,-2.3602,-2.3601,-2.3823,-2.3607,-2.3607,-2.3606,-2.3606,0,-2.3546,-2.3608,-2.3546,-2.3585,-2.3651,-2.3597,-2.3664,-2.3649,-2.3642,-2.3677,-2.3614,-2.3648,-2.3592,-2.3621,-2.359,-2.3651,-2.3655,-2.3644,-2.3635,-2.3651,-2.3653,-2.3662,-2.3652,-2.3612,-2.361,-2.3609,-2.3608,0,-2.3736,-2.3696,-2.3759,-2.3733,-2.3727,-2.3778,-2.3756,-2.3791,-2.3765,-2.381,-2.3817,-2.3778,-2.3808,-2.3769,-2.3796,-2.3775,-2.3859,-2.3835,-2.386,-2.3854,-2.3927,-2.3921,-2.4164,-2.4194,-2.3957,-2.3959,-2.3961,0,-2.3849,-2.3894,-2.3872,-2.389,-2.3886,-2.3915,-2.3928,-2.3876,-2.3893,-2.389,-2.3926,-2.395,-2.3967,-2.4018,-2.3993,-2.4013,-2.3991,-2.4074,-2.3994,-2.4008,-2.3994,-2.3993,-2.3998,-2.4092,-2.4095,-2.4097,-2.4099,0,-2.4054,-2.4031,-2.4052,-2.4066,-2.4083,-2.4091,-2.4095,-2.4114,-2.4059,-2.4081,-2.411,-2.4123,-2.4149,-2.4174,-2.4187,-2.418,-2.4132,-2.4124,-2.4141,-2.4159,-2.4173,-2.4168,-2.3908,-2.4119,-2.4117,-2.4116,-2.4115,-2.4114,-2.421,-2.4246,-2.4236,-2.4261,-2.4258,-2.4263,-2.4294,-2.4271,-2.4294,-2.4311,-2.4278,-2.4316,-2.4309,-2.4321,-2.432,-2.4349,-2.4313,-2.4338,-2.4345,-2.4352,-2.4364,-2.4166,-2.4351,-2.435,-2.4349,-2.4349,-2.4348,0,-2.4413,-2.4402,-2.4425,-2.4432,-2.4452,-2.4401,-2.4402,-2.4422,-2.4456,-2.4453,-2.447,-2.4504,-2.4527,-2.4503,-2.4522,-2.455,-2.4529,-2.4558,-2.4556,-2.4556,-2.4394,-2.4378,-2.4575,-2.4575,-2.4575,-2.4575,-2.4575,-2.4575,-2.4522,-2.4581,-2.4558,-2.4615,-2.4603,-2.4639,-2.4644,-2.4648,-2.4645,-2.4685,-2.4704,-2.4687,-2.4676,-2.4693,-2.4713,-2.4705,-2.4717,-2.4754,-2.4739,-2.4589,-2.4567,-2.4546,-2.4531,-2.4756,-2.4757,-2.4898,-2.4899,-2.49]},{"header":{"parameterUnit":"m.s-1","parameterCategory":1,"la1":30.2991,"la2":30.254,"lo1":-89.0895,"lo2":-89.0444,"dy":0.0017,"dx":0.0017,"nx":28,"ny":28,"refTime":"2023-05-23T21:00:00:Z","depth":0,"parameterNumber":3,"parameterNumberName":"V-component_of_WINDS"},"data":[0,0,0,0,0,0,0,0,0,0,0,0,0,0,0,0,0,0,0,0,0,0,0,0,0,0,0,0,0,0,0,0,0,0,0,0,0,0,0,0,0,0,0,0,0,0,0,0,0,0,0,0,0,0,0,0,0,0,-4.7116,-4.7116,0,-4.7131,-4.7131,-4.7131,-4.7066,-4.7064,-4.7063,-4.7061,-4.7074,-4.7077,-4.7079,0,0,0,0,0,0,0,0,0,0,0,0,0,-4.703,-4.7032,-4.7116,-4.7116,-4.7117,-4.7131,-4.7131,-4.7131,-4.7067,-4.7064,-4.7062,-4.706,-4.7074,-4.7076,-4.7079,0,0,0,0,0,0,0,0,0,0,0,0,0,-4.7058,-4.7032,-4.7116,-4.7086,-4.7084,-4.7131,-4.7131,-4.7131,-4.7067,-4.7064,-4.7061,-4.7059,-4.7073,-4.7076,-4.7079,-4.7156,0,0,-4.7089,-4.709,0,0,0,0,0,0,0,0,-4.7057,-4.7061,-4.709,-4.7088,-4.7085,-4.7094,-4.7105,-4.7139,-4.7068,-4.7073,-4.7061,-4.7057,-4.7083,-4.7085,-4.7094,-4.7156,-4.7157,-4.7089,-4.7091,-4.7093,-4.7093,0,0,0,0,0,0,0,-4.7055,-4.706,-4.7122,-4.7091,-4.7088,-4.7071,-4.7072,-4.7112,-4.7094,-4.7073,-4.7068,-4.7071,-4.7081,-4.7091,-4.7094,-4.7157,-4.7089,-4.7092,-4.7094,-4.7095,-4.7279,-4.7282,0,0,0,0,0,0,-4.7057,-4.7059,-4.7121,-4.7122,-4.7064,-4.7075,-4.7076,-4.7094,-4.7093,-4.709,-4.7073,-4.7068,-4.7087,-4.709,-4.7094,-4.7181,-4.7092,-4.7095,-4.7097,-4.7276,-4.728,-4.7283,0,0,0,0,0,0,-4.7055,-4.7063,-4.7121,-4.7089,-4.7096,-4.7079,-4.71,-4.7096,-4.7106,-4.7094,-4.709,-4.7087,-4.7085,-4.709,-4.714,-4.7181,-4.7097,-4.71,-4.7273,-4.7278,-4.7282,-4.7358,0,0,0,0,0,0,-4.7053,-4.7063,-4.7093,-4.7091,-4.7097,-4.7168,-4.7103,-4.7098,-4.7112,-4.7105,-4.7105,-4.7103,-4.7083,-4.7136,-4.7143,-4.7184,-4.7102,-4.7269,-4.7275,-4.728,-4.7351,-4.7364,-4.7375,0,0,0,0,0,-4.705,-4.7114,-4.7094,-4.7102,-4.7134,-4.717,-4.7174,-4.715,-4.7115,-4.7144,-4.7136,-4.7103,-4.7176,-4.7142,-4.715,-4.7192,-4.7266,-4.7273,-4.728,-4.7346,-4.7362,-4.7375,0,0,0,0,0,0,-4.7121,-4.7113,-4.7091,-4.7156,-4.7164,-4.7159,-4.7195,-4.7168,-4.7186,-4.7178,-4.7148,-4.7149,-4.7204,-4.7203,-4.7165,-4.7264,-4.7215,-4.7223,-4.7262,-4.7277,-4.7289,-4.7287,-4.7105,0,0,0,0,0,-4.7144,-4.7175,-4.7166,-4.7224,-4.7229,-4.7211,-4.7226,-4.7207,-4.7214,-4.7217,-4.7213,-4.722,-4.7244,-4.7261,-4.7283,-4.7351,-4.7349,-4.7384,-4.7396,-4.7406,-4.7413,-4.7447,-4.7461,-4.7305,-4.7305,-4.7305,0,0,-4.7192,-4.7192,-4.7213,-4.7238,-4.7242,-4.7273,-4.7215,-4.725,-4.7272,-4.7222,-4.7269,-4.7266,-4.7272,-4.7332,-4.7358,-4.7332,-4.7456,-4.7414,-4.7422,-4.7424,-4.7455,-4.747,-4.7483,-4.731,-4.7309,-4.7308,0,0,-4.7295,-4.7299,-4.7346,-4.7351,-4.7357,-4.7345,-4.7357,-4.7355,-4.7351,-4.7398,-4.736,-4.7386,-4.7429,-4.7434,-4.7443,-4.7546,-4.7515,-4.7554,-4.7615,-4.7648,-4.7661,-4.7671,-4.7706,-4.7719,-4.7562,-4.7562,-4.7562,0,-4.7354,-4.7399,-4.7374,-4.7411,-4.7422,-4.7379,-4.7425,-4.7431,-4.7445,-4.7453,-4.7425,-4.7477,-4.7478,-4.7537,-4.7562,-4.7571,-4.7581,-4.7553,-4.7661,-4.7672,-4.7681,-4.7714,-4.7727,-4.7566,-4.7566,-4.7565,-4.7565,0,-4.7469,-4.7502,-4.7539,-4.7552,-4.7568,-4.761,-4.759,-4.7609,-4.7588,-4.7579,-4.7626,-4.7626,-4.7646,-4.7659,-4.764,-4.7714,-4.7698,-4.7666,-4.7616,-4.7701,-4.7731,-4.7743,-4.7573,-4.7571,-4.757,-4.7569,0,0,-4.7617,-4.7615,-4.7629,-4.7633,-4.7637,-4.766,-4.77,-4.7719,-4.7735,-4.7746,-4.7777,-4.7814,-4.7784,-4.7793,-4.7774,-4.7804,-4.7883,-4.7768,-4.7768,-4.7787,-4.7962,-4.7984,-4.7999,-4.7863,-4.7865,-4.7867,-4.7961,0,-4.7715,-4.7783,-4.776,-4.7828,-4.7856,-4.7814,-4.7848,-4.7853,-4.7845,-4.7867,-4.7858,-4.7884,-4.7844,-4.7849,-4.7876,-4.7867,-4.7917,-4.7861,-4.789,-4.7891,-4.7887,-4.8015,-4.8039,-4.8127,-4.7972,-4.7974,-4.7976,0,-4.7839,-4.7854,-4.7925,-4.7921,-4.7932,-4.7963,-4.7978,-4.8,-4.8004,-4.7996,-4.8007,-4.7981,-4.8018,-4.7969,-4.8019,-4.7981,-4.7992,-4.7989,-4.7992,-4.7992,-4.7937,-4.8016,-4.8155,-4.8167,-4.7994,-4.7993,-4.7992,0,-4.7936,-4.7974,-4.802,-4.8026,-4.8024,-4.8046,-4.8046,-4.8048,-4.806,-4.8074,-4.8081,-4.8099,-4.8108,-4.8122,-4.8101,-4.8068,-4.8153,-4.8103,-4.8145,-4.8146,-4.8164,-4.8162,-4.8303,-4.8175,-4.8175,-4.8174,-4.8174,0,-4.8047,-4.8092,-4.8063,-4.8092,-4.8139,-4.8113,-4.816,-4.8156,-4.8157,-4.8183,-4.8149,-4.8174,-4.8146,-4.8168,-4.8152,-4.8194,-4.8199,-4.8193,-4.8188,-4.8194,-4.8195,-4.8199,-4.8192,-4.8178,-4.8177,-4.8176,-4.8176,0,-4.8163,-4.8147,-4.8194,-4.8187,-4.8187,-4.8222,-4.8216,-4.8241,-4.8231,-4.8264,-4.827,-4.8253,-4.8277,-4.8258,-4.8282,-4.8271,-4.8326,-4.8314,-4.8324,-4.832,-4.8363,-4.8358,-4.851,-4.8527,-4.839,-4.8391,-4.8393,0,-4.8234,-4.8267,-4.8264,-4.8278,-4.828,-4.8305,-4.8317,-4.8292,-4.8306,-4.8313,-4.8337,-4.8358,-4.8373,-4.8413,-4.8402,-4.842,-4.8406,-4.8458,-4.8408,-4.8413,-4.8404,-4.8401,-4.8403,-4.8467,-4.8469,-4.847,-4.8471,0,-4.8361,-4.835,-4.8369,-4.8385,-4.84,-4.8412,-4.842,-4.8434,-4.8408,-4.8426,-4.8449,-4.8461,-4.8485,-4.8505,-4.8519,-4.8518,-4.849,-4.8487,-4.8498,-4.8504,-4.8508,-4.8504,-4.8349,-4.8483,-4.8482,-4.8481,-4.8481,-4.848,-4.8454,-4.848,-4.8481,-4.8503,-4.8507,-4.8515,-4.8538,-4.853,-4.8549,-4.8566,-4.855,-4.8578,-4.858,-4.8596,-4.8598,-4.8619,-4.8598,-4.8614,-4.8617,-4.8621,-4.8626,-4.8506,-4.8622,-4.8622,-4.8622,-4.8621,-4.8621,0,-4.8577,-4.8575,-4.8595,-4.8608,-4.8624,-4.8597,-4.8604,-4.862,-4.8645,-4.8649,-4.8665,-4.8691,-4.8711,-4.8702,-4.8718,-4.8737,-4.8724,-4.8742,-4.8739,-4.8739,-4.8645,-4.8633,-4.8752,-4.8752,-4.8752,-4.8752,-4.8752,-4.8752,-4.8642,-4.8684,-4.8673,-4.8716,-4.8714,-4.8741,-4.8747,-4.8754,-4.8757,-4.8788,-4.8804,-4.8798,-4.8797,-4.8813,-4.8829,-4.8826,-4.8832,-4.8854,-4.8846,-4.8759,-4.8746,-4.8733,-4.8722,-4.8857,-4.8857,-4.8938,-4.8938,-4.8939]}]]